Location: Napier
(39.4830°S, 176.9170°E)
Time: 00:24:25
(UTC+12:00)

Meteor 2-10 Rocket - Pass Details

Date: 24 January 2019
Orbit: 735 x 884 km, 81.2° (Epoch: 21 April)

Event Time Altitude Azimuth Distance (km) Brightness Sun altitude
Rises 21:32:54 0° 339° (NNW) 3,174 6.6 -10.3°
Reaches altitude 10° 21:35:14 10° 333° (NNW) 2,271 5.9 -10.6°
Maximum altitude 21:40:12 51° 257° (WSW) 966 4.5 -11.4°
Drops below altitude 10° 21:45:24 10° 181° (S) 2,379 6.6 -12.2°
Sets 21:47:55 0° 175° (S) 3,339 7.3 -12.6°
